Home   Weather   Bar Harbor   Past weeks
Flag for USA

Past Weather in Bar Harbor, Maine, USA — Yesterday and Last 2 Weeks

Currently: 64 °F. Light rain. Fog. (Weather station: Bangor International Airport, USA). See more current weather

Past Weather in Bar Harbor — Graph

°F

Bar Harbor Temperature Yesterday

Maximum temperature yesterday: 69 °F (at 11:53 am)
Minimum temperature yesterday: 59 °F (at 12:53 am)
Average temperature yesterday: 65 °F

High & Low Weather Summary for the Past Weeks

 TemperatureHumidityPressure
High89 °F (Jul 14, 4:53 pm)100% (Jul 11, 11:18 pm)30.24 "Hg (Jul 11, 11:18 pm)
Low53 °F (Jul 22, 5:53 am)32% (Jul 21, 4:53 pm)29.63 "Hg (Jul 17, 12:53 am)
Average73 °F78%29.95 "Hg
* Reported Jul 10 7:53 am — Jul 25 7:53 am, Bar Harbor. Weather by CustomWeather, © 2024

Note: Actual official high and low records may vary slightly from our data, if they occured in-between our weather recording intervals... More about our weather records

Bar Harbor Weather History for the Previous 24 Hours

Scroll right to see more
 ConditionsComfort  
Time TempWeatherWind HumidityBarometerVisibility
7:53 am
Thu, Jul 25
64 °FLight rain. Fog.8 mph94%30.03 "Hg1 mi
7:37 am64 °FFog.9 mph94%30.04 "Hg1 mi
7:15 am64 °FFog.8 mph94%30.05 "Hg6 mi
6:53 am64 °FFog.7 mph94%30.04 "Hg6 mi
5:53 am64 °FLight rain. Low clouds.8 mph94%30.05 "Hg10 mi
5:36 am64 °FLow clouds.6 mph94%30.06 "Hg10 mi
3:53 am64 °FLow clouds.6 mph90%30.08 "Hg10 mi
2:53 am64 °FLow clouds.5 mph90%30.10 "Hg10 mi
2:26 am64 °FMostly cloudy.No wind94%30.12 "Hg10 mi
1:53 am64 °FOvercast.5 mph90%30.11 "Hg10 mi
1:36 am66 °FMostly cloudy.5 mph87%30.13 "Hg10 mi
1:22 am64 °FOvercast.5 mph90%30.13 "Hg10 mi
1:12 am64 °FMostly cloudy.5 mph94%30.13 "Hg10 mi
12:53 am64 °FMostly cloudy.No wind94%30.14 "Hg10 mi
12:35 am64 °FMostly cloudy.3 mph94%30.15 "Hg10 mi
12:16 am64 °FMostly cloudy.3 mph94%30.15 "Hg10 mi
11:53 pm
Wed, Jul 24
64 °FMostly cloudy.3 mph94%30.15 "Hg10 mi
10:53 pm65 °FMostly cloudy.3 mph94%30.15 "Hg10 mi
10:31 pm65 °FPartly cloudy.3 mph91%30.16 "Hg10 mi
9:53 pm66 °FMostly cloudy.5 mph90%30.16 "Hg10 mi
9:28 pm66 °FMostly cloudy.6 mph93%30.18 "Hg10 mi
8:53 pm67 °FOvercast.6 mph90%30.18 "Hg10 mi
7:53 pm67 °FCloudy.5 mph90%30.18 "Hg10 mi
6:53 pm67 °FMostly cloudy.6 mph87%30.19 "Hg10 mi
5:53 pm67 °FMostly cloudy.5 mph90%30.19 "Hg10 mi
4:53 pm67 °FMostly cloudy.6 mph90%30.20 "Hg10 mi
3:53 pm67 °FFog.9 mph90%30.21 "Hg6 mi
2:53 pm67 °FFog.8 mph93%30.21 "Hg4 mi
2:26 pm67 °FDrizzle. Fog.7 mph93%30.23 "Hg2 mi
1:53 pm67 °FLight rain. Fog.7 mph97%30.22 "Hg1 mi
12:53 pm67 °FDrizzle. Fog.6 mph93%30.23 "Hg1 mi
12:37 pm68 °FDrizzle. Fog.8 mph87%30.23 "Hg3 mi
11:53 am69 °FMostly cloudy.6 mph84%30.23 "Hg10 mi
10:53 am68 °FLight rain. Mostly cloudy.3 mph87%30.23 "Hg10 mi
10:24 am68 °FMostly cloudy.6 mph90%30.24 "Hg10 mi
9:53 am66 °FLight rain. Mostly cloudy.5 mph93%30.24 "Hg10 mi
Weather by CustomWeather, © 2024

See weather overview